Probability
0 0 0 0 0 0 0 0 0 0 0 0 0 0 0 0 0 0 0 0 0 0 0 0 0 0 0 1 1 0 0 0 0 0 0 0 0 0 0 0 0 0 0 0 0 0 0 0 0
0 0 0 0 0 0 0 0 0 0 0 0 0 0 0 0 0 0 0 0 0 0 0 0 1 1 1 2 2 1 0 0 0 0 0 0 0 0 0 0 0 0 0 0 0 0 0 0 0
0 0 0 0 0 0 0 0 0 0 0 0 0 0 0 0 0 0 0 0 0 0 0 1 2 2 3 3 3 2 1 0 0 0 0 0 0 0 0 0 0 0 0 0 0 0 0 0 0
0 0 0 0 0 0 0 0 0 0 0 0 0 0 0 0 0 0 0 0 0 0 0 1 4 5 5 4 4 3 2 1 0 0 0 0 0 0 0 0 0 0 0 0 0 0 0 0 0
0 0 0 0 0 0 0 0 0 0 0 0 0 0 0 0 0 0 0 0 0 0 0 2 7 10 9 6 5 4 3 2 1 0 0 0 0 0 0 0 0 0 0 0 0 0 0 0 0
0 0 0 0 0 0 0 0 0 0 0 0 0 0 0 0 0 0 0 0 0 0 0 2 7 12 12 9 7 6 4 3 1 0 0 0 0 0 0 0 0 0 0 0 0 0 0 0 0
0 0 0 0 0 0 0 0 0 0 0 0 0 0 0 0 0 0 0 0 0 0 0 2 5 9 12 11 10 9 6 3 2 1 1 0 0 0 0 0 0 0 0 0 0 0 0 0 0
0 0 0 0 0 0 0 0 0 0 0 0 0 0 0 0 0 0 0 0 0 0 1 2 4 7 11 13 14 12 9 6 5 4 3 2 1 0 0 0 0 0 0 0 0 0 0 0 0
0 0 0 0 0 0 0 0 0 0 0 0 0 0 0 0 0 0 0 0 0 1 2 3 4 7 12 15 17 18 18 16 13 11 9 7 4 1 0 0 0 0 0 0 0 0 0 0 0
0 0 0 0 0 0 0 0 0 0 0 0 0 0 0 0 0 0 0 0 0 1 3 4 6 10 15 18 18 22 28 30 27 23 20 17 12 7 3 2 1 0 0 0 0 0 1 2 2
0 0 0 0 0 0 0 0 0 0 0 0 0 0 1 2 1 0 0 0 0 1 4 7 11 16 20 20 19 23 32 39 40 37 34 32 27 19 13 9 5 3 2 3 4 4 5 6 8
0 0 0 0 0 0 0 0 0 0 0 0 0 1 2 2 1 0 0 0 1 2 4 9 17 23 25 24 21 23 33 43 49 48 47 49 46 37 29 21 14 10 9 11 12 13 12 12 14
0 0 0 0 0 0 0 0 0 0 0 0 1 2 2 1 1 1 1 2 5 5 6 11 21 30 34 34 29 26 32 43 50 49 51 59 60 51 42 33 24 19 19 20 22 24 22 20 20
0 0 0 0 0 0 0 0 0 0 2 5 8 8 7 6 5 5 6 8 11 11 9 12 21 33 42 44 38 29 30 38 42 41 43 55 63 61 53 44 35 30 30 31 34 37 35 30 28
0 0 0 0 0 0 0 0 1 4 9 16 22 24 24 22 20 16 14 14 16 17 15 17 26 36 43 46 39 30 29 34 38 36 37 48 61 65 62 57 50 47 48 49 51 54 52 44 39
0 0 0 0 0 0 0 1 4 10 20 31 40 43 43 43 39 34 28 21 20 22 25 30 38 43 43 43 41 38 37 41 47 48 48 53 61 66 69 69 65 63 65 68 68 66 61 54 48
0 0 0 0 0 0 1 3 9 19 31 43 51 53 53 54 53 51 45 34 27 27 32 39 46 48 45 44 45 48 50 54 59 61 62 63 65 68 72 73 73 74 76 78 75 68 60 54 51
0 0 0 0 0 0 3 8 16 26 38 47 51 53 56 58 58 56 51 43 34 30 31 36 39 41 41 43 44 49 54 58 61 61 62 64 64 66 67 68 72 78 81 79 73 66 58 51 48
0 0 0 0 0 1 4 9 16 25 34 39 43 49 56 59 54 48 43 37 29 24 23 24 24 24 27 31 34 38 42 46 48 49 49 50 49 50 52 56 63 71 75 72 68 64 60 53 46
0 0 0 0 0 1 3 5 9 16 22 27 34 43 49 49 42 35 29 23 16 12 11 12 10 9 10 13 17 21 23 24 27 30 29 28 26 27 31 37 44 51 55 56 56 57 56 50 42
0 0 0 0 0 0 1 1 3 6 11 17 25 31 34 31 26 20 15 11 6 4 3 3 2 2 2 3 5 8 8 9 11 13 12 11 10 11 14 20 25 31 36 40 41 44 48 44 38
0 0 0 0 0 0 0 0 1 2 6 10 14 17 18 16 14 10 7 4 2 1 0 0 0 0 1 3 4 4 3 3 5 5 4 4 4 4 5 9 14 19 25 29 29 32 37 37 33
0 0 0 0 0 0 0 0 0 1 2 4 6 7 8 7 7 6 4 2 1 0 1 2 2 1 2 5 6 4 1 1 1 1 1 1 1 1 1 3 7 11 16 20 22 23 25 26 24
0 0 0 0 0 0 0 0 0 0 1 1 1 2 3 3 3 3 2 2 1 0 1 4 4 2 2 4 5 3 1 0 0 0 0 0 0 0 0 1 2 5 7 10 13 15 16 16 15
0 0 0 0 0 0 0 0 0 0 0 0 0 0 0 0 1 1 1 2 1 0 1 5 6 4 3 3 3 2 1 0 0 0 0 0 0 0 0 0 0 1 1 3 6 9 10 11 12
0 0 0 0 0 0 0 0 0 0 0 0 0 0 0 0 0 0 0 1 1 0 1 4 6 5 3 3 2 1 1 0 0 0 0 0 0 0 0 0 0 0 0 0 2 5 8 11 13
0 0 0 0 0 0 0 0 0 0 0 0 0 0 0 0 0 0 0 0 0 0 0 2 3 4 3 2 1 0 0 0 0 0 0 0 0 0 0 0 0 0 0 0 1 3 6 10 13
0 0 0 0 0 0 0 0 0 0 0 0 0 0 0 0 0 0 0 0 0 0 0 0 1 1 1 1 1 0 0 0 0 0 0 0 0 0 0 0 0 0 0 1 2 3 5 8 10
0 0 0 0 0 0 0 0 0 0 0 0 0 0 0 0 0 0 0 0 0 0 0 0 0 0 0 0 0 0 0 0 0 0 0 0 0 0 0 0 0 0 0 1 2 2 3 5 6
0 0 0 0 0 0 0 0 0 0 0 0 0 0 0 0 0 0 0 0 0 0 0 0 0 0 0 0 0 0 0 0 0 0 0 0 0 0 0 0 0 0 0 0 1 1 2 2 3
Wind_Speed
3 3 2 1 4 5 3 2 1 1 2 1 3 3 6 4 3 2 1 9 14 14 12 16 19 18 17 16 16 15 15 14 14 13 13 12 11 11 10 9 9 8 8 7 7 7 6 6 6
2 3 1 3 5 4 4 3 1 1 3 3 4 4 5 2 2 5 5 7 14 14 11 13 19 18 18 17 16 15 15 14 13 13 12 11 10 10 9 9 8 7 7 7 7 7 7 6 6
3 2 3 4 3 2 3 3 0 2 3 2 3 4 3 2 5 7 6 11 12 11 9 13 20 19 18 17 16 15 15 14 13 12 11 10 10 9 9 8 8 7 7 7 7 7 7 6 6
3 2 3 4 2 3 4 3 2 3 2 4 4 4 3 2 6 7 11 14 13 10 9 12 20 19 18 17 16 15 14 14 13 12 11 10 10 9 9 8 8 8 7 7 7 7 7 7 7
3 4 5 4 4 4 3 1 2 2 2 2 3 4 2 4 7 11 14 14 14 11 8 10 19 18 18 17 16 15 15 14 13 12 11 11 10 10 9 9 9 9 9 9 9 8 8 8 8
4 4 5 2 6 5 3 1 2 3 2 3 4 4 1 2 6 11 12 11 11 11 8 8 18 18 17 16 16 15 14 14 13 12 12 11 11 11 10 10 10 10 10 10 10 10 10 10 9
4 4 2 1 4 4 2 1 1 3 3 4 5 5 0 3 4 8 9 8 8 8 7 6 8 12 16 16 15 14 14 13 13 12 12 12 12 12 12 12 12 12 12 12 12 12 12 12 11
4 4 2 2 2 4 3 2 0 3 2 4 5 7 6 6 8 8 7 7 7 6 6 5 5 6 6 8 14 14 14 13 13 13 13 13 13 13 13 12 12 13 13 13 14 14 13 13 12
3 5 0 2 1 4 3 2 1 2 4 2 2 4 5 13 14 10 7 6 6 8 6 5 5 5 5 5 9 12 13 13 13 11 14 12 7 6 7 11 13 15 15 15 15 15 15 14 13
4 3 4 4 3 3 4 2 2 2 2 1 2 4 11 16 14 13 12 12 12 12 10 8 7 6 5 6 5 4 5 5 6 5 6 5 4 5 8 9 16 17 17 17 17 16 15 12 6
3 4 4 4 4 3 3 3 0 5 3 6 7 9 14 14 12 12 12 11 11 10 10 10 9 7 7 5 4 3 3 3 4 6 6 4 4 4 6 4 7 9 12 9 9 10 7 7 6
1 4 4 5 3 3 2 1 0 4 7 6 8 14 15 16 14 14 12 10 8 8 10 9 9 8 7 5 3 3 3 3 4 6 7 5 5 6 6 6 6 5 5 6 6 5 8 9 9
2 4 4 5 6 4 2 2 2 4 4 4 10 12 13 13 10 8 6 6 7 8 9 8 8 8 7 6 4 5 5 5 5 5 6 8 7 7 7 6 6 7 6 7 7 8 9 9 10
3 4 7 6 4 2 1 2 1 3 1 7 10 10 9 9 8 6 6 7 7 8 8 7 9 9 7 6 5 4 4 5 4 5 7 8 7 7 7 7 7 8 8 8 8 9 8 8 7
3 4 6 4 3 3 0 4 3 3 3 7 7 6 5 4 5 5 5 6 7 7 7 8 8 7 7 7 6 5 4 4 5 6 7 8 8 9 9 7 8 8 7 7 7 7 6 6 7
3 4 4 7 5 4 1 4 6 3 6 7 6 6 5 3 3 2 4 4 5 5 6 7 7 8 7 6 5 4 4 5 6 6 6 9 10 11 9 8 9 8 6 6 6 6 6 6 6
5 3 3 7 5 4 2 2 6 4 6 7 6 6 6 5 5 4 4 4 5 5 5 5 5 5 6 5 5 5 4 5 5 5 6 7 9 10 9 8 8 7 7 7 7 6 5 6 6
1 1 2 5 5 5 4 2 5 6 6 6 6 5 5 6 3 3 5 6 6 5 5 4 4 4 4 3 3 3 4 4 4 5 6 7 6 7 7 7 9 8 7 7 7 7 7 5 5
1 0 2 4 3 3 3 3 5 5 5 4 4 4 5 4 2 2 4 5 5 5 5 4 4 3 2 1 1 2 3 3 3 3 4 5 5 5 5 6 7 7 7 8 9 7 8 7 4
1 1 2 3 4 3 3 4 4 4 2 1 4 4 4 3 2 1 2 2 3 4 5 4 4 4 3 2 2 2 2 2 2 3 3 4 4 4 4 4 5 5 6 7 7 8 6 5 6
1 2 1 2 3 5 3 5 5 4 4 2 2 3 3 5 6 4 4 4 3 4 6 5 5 4 3 2 1 0 1 2 2 2 3 4 5 5 4 5 5 5 5 6 7 7 8 7 6
1 3 2 0 2 3 3 1 5 3 4 2 1 3 4 5 5 5 6 5 6 6 4 4 5 4 3 2 2 2 1 2 3 2 3 5 5 6 5 5 5 5 5 6 7 6 6 7 6
2 3 3 2 2 2 4 1 7 3 2 3 3 4 6 6 7 7 7 7 6 5 4 4 4 4 3 3 3 2 2 2 2 2 4 4 5 5 5 5 5 5 5 6 7 6 7 7 7
3 6 6 5 5 3 2 0 5 3 4 4 4 5 6 6 6 6 6 5 4 4 4 4 4 4 4 4 3 4 4 3 3 4 4 4 4 4 5 5 5 5 5 6 7 7 8 7 9
6 7 6 7 6 4 3 1 6 6 4 4 4 5 5 4 4 5 6 5 4 4 5 4 5 5 5 5 5 5 5 4 4 4 4 4 4 4 5 6 5 6 6 7 6 6 7 8 9
1 7 7 3 4 5 4 3 5 4 5 4 3 4 6 7 6 6 6 6 6 5 5 5 5 6 5 5 5 5 5 3 3 4 4 4 4 5 6 6 6 7 7 7 6 6 7 6 7
3 2 5 6 2 2 5 5 7 10 12 11 10 10 10 9 9 8 8 7 6 6 6 5 6 6 6 6 6 5 5 5 4 4 3 3 4 5 6 7 7 8 8 7 7 6 7 6 6
2 7 5 5 4 3 5 3 5 10 11 10 10 9 9 9 10 10 9 9 8 7 6 5 4 6 6 6 6 5 5 5 4 3 4 4 5 5 7 7 8 8 8 7 7 6 6 6 6
2 4 5 4 4 5 4 5 1 3 5 5 7 7 8 8 9 9 9 9 8 9 9 8 7 7 7 6 6 6 6 5 4 4 4 4 4 5 6 7 7 8 8 7 6 6 6 5 5
1 3 5 2 3 4 3 5 2 2 3 3 5 6 6 7 7 7 8 9 10 11 11 10 9 8 8 7 6 6 6 5 5 5 5 4 4 5 5 6 6 7 7 6 6 5 4 3 3
Wind_Direction
192 152 139 109 60 44 8 316 258 331 13 44 115 110 124 132 179 209 94 138 137 147 159 163 162 160 158 156 154 152 151 149 148 147 146 146 146 146 146 147 149 150 149 148 148 147 146 144 140
156 153 118 70 71 43 323 310 4 68 133 101 69 71 75 74 75 113 131 143 143 149 157 162 165 163 162 161 160 160 159 158 157 156 155 154 154 155 157 159 161 163 163 163 164 165 164 161 158
162 169 89 69 75 158 276 295 83 101 143 121 84 67 96 139 141 155 157 145 142 151 157 168 167 167 166 166 167 167 167 167 166 166 166 166 168 171 173 175 178 181 182 182 183 184 182 182 181
134 70 56 61 9 243 238 256 171 136 97 71 100 81 64 32 153 155 144 147 148 154 159 173 170 171 171 171 172 174 175 175 176 177 178 181 184 188 192 194 197 201 203 203 203 204 203 202 203
75 77 51 26 318 285 267 253 149 123 75 70 100 99 52 10 105 132 146 153 156 158 164 177 173 175 176 176 178 180 182 183 185 187 190 194 199 204 208 210 212 216 220 221 220 220 221 221 221
56 60 66 351 312 306 315 344 105 100 102 108 110 107 58 92 130 147 151 154 158 161 164 175 178 179 180 181 183 185 188 191 194 197 201 206 211 216 221 224 226 227 229 231 232 232 233 233 234
95 81 108 284 304 314 330 7 128 131 147 172 139 116 172 166 157 145 140 137 144 157 162 174 177 182 185 186 188 191 195 198 202 206 211 216 221 226 230 233 235 236 237 239 240 240 241 241 241
117 95 55 318 300 301 312 343 199 158 163 136 132 147 199 188 143 125 116 121 140 156 169 173 173 174 180 188 196 197 201 205 209 214 219 224 229 233 236 237 240 244 245 245 246 246 247 247 247
87 75 251 246 260 294 317 333 316 126 119 129 158 176 179 136 136 131 126 133 159 176 182 178 177 175 173 182 201 202 207 211 215 220 226 229 231 237 245 246 244 248 250 250 250 251 251 252 252
88 132 230 231 236 273 295 271 211 120 123 141 76 72 121 137 151 159 166 173 182 188 190 189 186 180 175 192 197 199 206 210 213 212 225 227 221 228 240 248 252 253 253 253 252 251 252 253 249
146 197 244 266 263 263 274 291 222 142 199 208 187 155 146 154 166 177 184 186 191 190 191 194 195 187 186 195 191 197 203 206 213 215 217 221 227 234 242 243 254 258 259 257 256 255 247 241 240
234 249 249 277 298 299 252 273 205 194 225 217 175 155 157 169 182 188 190 190 183 183 195 193 193 193 198 198 202 201 213 219 224 224 219 218 227 234 238 241 241 240 244 246 248 246 245 243 242
274 281 285 275 290 271 257 244 222 251 275 112 126 145 164 177 189 195 193 188 184 191 195 192 187 195 199 201 210 212 218 225 231 230 227 225 231 237 237 240 240 239 235 235 240 241 243 244 245
279 287 290 287 283 275 227 282 334 293 86 118 136 155 165 174 178 180 187 191 193 197 197 189 190 195 195 203 211 223 220 226 233 241 240 231 231 237 238 239 239 239 236 233 233 236 240 242 243
301 319 327 326 327 304 340 323 318 310 114 116 128 133 132 143 150 169 179 186 192 193 190 190 194 192 198 208 215 226 231 230 228 234 240 237 234 235 237 238 239 239 235 234 234 238 239 244 244
30 28 343 314 337 328 129 263 310 339 115 111 112 114 111 94 102 123 147 162 173 174 177 188 196 190 199 208 215 223 231 232 234 234 240 239 237 237 237 240 242 239 232 228 228 229 232 238 242
27 31 329 314 339 356 91 269 321 359 106 105 101 104 105 89 68 67 97 119 139 154 156 164 174 183 195 206 212 225 233 239 240 240 244 248 245 241 237 242 245 240 234 231 230 226 223 236 241
310 354 327 310 325 24 52 360 349 12 85 103 101 99 99 94 78 83 94 103 109 110 119 135 149 165 174 186 209 232 244 247 247 246 249 255 255 253 244 245 247 241 236 232 226 227 219 224 233
149 213 294 287 319 47 50 30 3 17 65 93 101 105 108 103 89 90 102 109 115 120 136 153 152 160 150 154 190 222 246 253 257 259 263 268 273 273 261 259 255 243 239 236 228 225 226 222 202
157 102 305 308 356 57 52 26 356 24 31 149 148 143 139 124 117 120 129 147 150 154 160 169 172 175 176 178 190 211 242 271 276 293 299 299 303 297 288 271 266 258 254 253 242 228 227 222 197
144 172 227 285 353 28 39 3 349 355 14 56 109 142 161 172 180 191 199 206 193 191 184 180 187 186 187 180 147 21 352 323 316 313 312 317 318 309 296 288 282 273 262 260 251 237 230 230 216
220 242 225 163 56 340 30 312 303 337 345 7 150 179 200 209 206 209 215 219 220 218 202 191 195 196 197 175 168 181 210 253 259 278 291 304 308 310 310 308 303 291 279 270 264 251 242 237 235
193 56 68 62 109 45 23 105 287 334 316 273 243 231 230 227 223 227 228 228 232 226 212 207 205 211 206 195 195 200 229 243 269 283 291 297 303 306 312 312 309 302 291 280 271 264 251 242 239
106 70 50 46 63 52 324 175 282 273 246 253 251 249 249 245 242 247 254 253 252 239 226 215 214 229 221 214 212 211 230 249 274 288 294 299 301 302 311 314 308 301 294 289 282 271 258 250 247
68 72 26 8 13 271 281 212 254 274 270 246 247 260 281 297 296 296 296 287 273 254 242 230 224 237 231 223 224 223 226 235 250 269 281 295 303 304 311 314 307 301 293 288 282 275 265 254 250
124 130 149 193 231 279 321 246 257 325 347 359 2 2 2 353 342 328 321 316 307 289 267 249 240 245 239 231 233 230 227 230 243 254 265 278 285 292 299 305 303 300 295 289 280 272 266 258 251
138 143 158 135 171 271 288 296 320 2 8 14 20 23 14 5 2 356 350 343 331 321 303 275 260 258 251 240 236 234 229 229 240 253 261 272 281 293 303 306 305 303 299 292 284 272 267 262 255
100 137 98 115 153 250 287 309 315 336 344 360 12 12 7 9 11 8 5 359 352 344 337 330 295 275 270 255 241 239 231 231 236 247 260 273 285 296 306 309 310 308 305 299 288 277 267 259 255
36 77 93 108 154 168 251 268 341 329 339 358 4 9 8 8 6 6 5 2 1 2 0 352 340 320 303 283 260 246 240 234 233 242 254 268 284 296 303 307 310 310 310 307 298 282 271 257 252
263 143 141 136 252 189 205 252 14 4 355 5 4 2 4 6 5 5 4 6 7 2 357 352 343 331 316 301 278 254 244 234 234 243 250 259 277 291 300 308 312 315 318 318 313 300 288 263 251